Regional Weather Roundup
Issued by NWS

Home | Current Version | Previous Version | Graphics & Text | Print | Product List | Glossary On
Versions: 1 2 3 4 5 6 7 8 9 10 11 12 13 14 15 16 17 18 19 20 21 22 23 24 25 26 27 28 29 30 31 32 33 34 35 36 37 38 39 40 41 42 43 44 45 46 47 48 49 50
979
ASUS45 KABQ 180401
RWRNM
NEW MEXICO REGIONAL WEATHER ROUNDUP
NATIONAL WEATHER SERVICE ALBUQUERQUE NM
900 PM MST FRI NOV 17 2017

NOTE: "FAIR" MEANS FEW OR NO CLOUDS BELOW 12,000 FEET AGL WITH NO
       SIGNIFICANT WEATHER OR OBSTRUCTIONS TO VISION.

      THIS PRODUCT IS RELEASED AS TWO VERSIONS.  ONE VERSION NEAR
      THE TOP OF THE HOUR CONTAINING PRELIMINARY DATA FROM ALBUQUERQUE
      AND OTHER STATIONS.  A FINAL VERSION WITH ADDITIONAL DATA IS
      ISSUED ABOUT 10 MINUTES AFTER THE HOUR.

NMZ501-503-504-510>518-180500-
NORTHWEST PLATEAU/NORTHCENTRAL MOUNTAINS

CITY           SKY/WX    TMP DP  RH WIND       PRES   REMARKS
FARMINGTON     MOCLDY    54  36  50 W26G39    29.89R
LOS ALAMOS     FAIR      49  32  51 W24G33    29.97S
SANTA FE       MOCLDY    51  41  68 W16G24    29.96R
TAOS           CLOUDY    48  34  58 W23G32    29.93F
ANGEL FIRE     CLOUDY    42  32  68 W20G32    29.95S

$$
NMZ402-403-502-505>509-180500-
WESTCENTRAL MOUNTAINS/SOUTHWEST MOUNTAINS

CITY           SKY/WX    TMP DP  RH WIND       PRES   REMARKS
GALLUP         FAIR      46  38  73 SW16      30.06R
GRANTS         FAIR      50  35  57 W20G35    30.04R
SILVER CITY    FAIR      54  23  29 NW13      30.08S

$$
NMZ407-409-411-412-180500-
SOUTHERN DESERTS

CITY           SKY/WX    TMP DP  RH WIND       PRES   REMARKS
DEMING         FAIR      57  23  26 SW6       30.05R
LAS CRUCES     FAIR      65  19  17 W13       30.04R
HOLLOMAN AFB   CLOUDY    71  19  14 S10       30.01R
ALAMOGORDO     FAIR      68  19  15 SW10      30.01R
T OR C         FAIR      65  19  17 W8        29.99F

$$
NMZ519>523-180500-
CENTRAL VALLEYS/CENTRAL HIGHLANDS

CITY           SKY/WX    TMP DP  RH WIND       PRES   REMARKS
ALBUQUERQUE    MOCLDY    56  39  53 VRB5      29.99S
DOUBLE EAGLE   PTCLDY    52  37  58 SW15G22   29.99S
MORIARTY ARPT  FAIR      54  39  57 W29G38    29.94F
CLINES CORNERS FAIR      49  35  58 W29G40    29.99F
BELEN          FAIR      59  32  37 W10       29.99R
SOCORRO        MOCLDY    62  26  25 S6        29.98S

$$
NMZ524>526-539-540-180500-
SOUTHCENTRAL MOUNTAINS

CITY           SKY/WX    TMP DP  RH WIND       PRES   REMARKS
RUIDOSO        FAIR      57  19  23 W14       30.06S

$$
NMZ527>531-180500-
NORTHEAST HIGHLANDS/NORTHEAST PLAINS

CITY           SKY/WX    TMP DP  RH WIND       PRES   REMARKS
LAS VEGAS      FAIR      50  35  56 W29G41    29.87F
RATON          FAIR      54  28  36 W25G36    29.75F
CLAYTON        FAIR      57  37  47 SW18G26   29.70F

$$
NMZ532>537-180500-
EASTCENTRAL PLAINS

CITY           SKY/WX    TMP DP  RH WIND       PRES   REMARKS
SANTA ROSA     FAIR      62  37  39 W20G41    29.83S
TUCUMCARI      FAIR      68  36  30 W26G37    29.75S
CANNON AFB     FAIR      64  31  29 W20G26    29.84S
CLOVIS AIRPORT FAIR      64  32  30 W20G26    29.83S

$$
NMZ028-029-538-180500-
SOUTHEAST PLAINS

CITY           SKY/WX    TMP DP  RH WIND       PRES   REMARKS
ROSWELL        FAIR      63  25  23 SW9       29.86R
ARTESIA        FAIR      72  28  20 SW18      29.87S
CARLSBAD       FAIR      70  29  21 S8        29.88R
HOBBS          FAIR      63  28  27 W10       29.87S


$$




USA.gov is the U.S. government's official web portal to all federal, state and local government web resources and services.